STARLINK-1011 (44717 NORAD) Tracking and Keplerian Element Data

This shows tracking and keplerian element data for the satellite.

Feedback or suggestion? Click here.




ElementValue
Catalog44717
NameSTARLINK-1011
Epoch Orbit1141
Epoch Day23.25001157
Epoch Year2020
RAAN172.3066
Inclination53.0067
Eccentricity0.0001328
Argument of Perigee78.5041
Mean Anonmoly260.1247
Mean Motion15.33783994
Decay Rate-0.00049821
L11 44717U 19074E 20023.25001157 -.00049821 00000-0 -15021-2 0 9999
L22 44717 53.0067 172.3066 0001328 78.5041 260.1247 15.33783994 11411

Live tracking and technical data element details for STARLINK-1011 (NORAD 44717). STARLINK-1011 can be tracked NOW for your location showing map with azimuth and elevation plus other details from your city location.

Track the satellite on the map from your city or location and see movement details for azimuth, elevation, latitude, longitude, range, height, and movement on the map or in text.







IsCatalogInMostPopularTable: catalog: 44717, numindb: 8
Update: records affected: 1



GetName: 44717 STARLINK-1011

Hit Count: updated at: Fri, 24 Jan 2020 11:51:47 GMT